Tracking 18840 objects as of 18-November-2017
HD Live streaming from Space Station
objects crossing your sky now

COSMOS 2299

Track COSMOS 2299 now!
10-day predictions
COSMOS 2299 is classified as:


NORAD ID: 23441
Int'l Code: 1994-086A
Perigee: 1,408.2 km
Apogee: 1,421.4 km
Inclination: 82.6 °
Period: 114.0 minutes
Semi major axis: 7785 km
RCS: 1.0821 m2 (large)
Launch date: December 26, 1994
Source: Commonwealth of Independent States (former USSR) (CIS)
Launch site: PLESETSK MISSILE AND SPACE COMPLEX (PKMTR)
aabbcc
Your satellite tracking list
Your tracking list is empty




NASA's NSSDC Master Catalog

Two Line Element Set (TLE):
1 23441U 94086A   17321.89608558 +.00000021 +00000-0 +56824-4 0  9996
2 23441 082.5661 143.9196 0008468 116.0888 244.1076 12.63711933055937
Source of the keplerian elements: AFSPC